Weather Roundup
Issued by NWS Chicago, IL

Home | Current Version | Previous Version | Graphics & Text | Print | Product List | Glossary On
Versions: 1 2 3 4 5 6 7 8 9 10 11 12 13 14 15 16 17 18 19 20 21 22 23 24 25 26 27 28 29 30 31 32 33 34 35 36 37 38 39 40 41 42 43 44 45 46 47 48 49 50
000
NZUS59 KLOT 251108
HRRLOT

CHICAGO AREA WEATHER ROUNDUP
NATIONAL WEATHER SERVICE CHICAGO/ROMEOVILLE IL
600 AM CDT TUE APR 25 2017

NOTE: "FAIR" INDICATES FEW OR NO CLOUDS BELOW 12,000 FEET WITH NO
SIGNIFICANT WEATHER AND/OR OBSTRUCTIONS TO VISIBILITY.

* THESE STATIONS ARE NOT UNDER NWS QUALITY CONTROL. THEY ALSO MAY NOT
  REPORT WEATHER SUCH AS PRECIPITATION OR FOG.

ILZ005-006-012>014-019>023-251200-
NORTHEAST ILLINOIS

CITY           SKY/WX    TMP DP  RH WIND       PRES   REMARKS
OHARE          MOCLDY    56  47  71 SE10      29.70S
MIDWAY         CLOUDY    57  48  72 SE8       29.72R
AURORA         PTCLDY    51  45  79 SE9       29.69F
LANSING*       PTCLDY    54  50  86 SE7       29.73S
JOLIET*        CLOUDY    54  48  82 SE6       29.71S
WAUKEGAN       PTCLDY    49  44  83 SE10      29.70F
DUPAGE AIRPORT PTCLDY    55  49  80 SE8       29.69S
WHEELING       CLOUDY    50  45  83 SE5       29.72S
KANKAKEE*      CLOUDY    50  45  83 CALM      29.74R
MORRIS*        CLOUDY    52  46  81 CALM      29.69S
LEWIS AIRPORT* CLOUDY    54  50  88 SE10      29.71S
NORTHERLY ISL    N/A     55  49  80 SE7         N/A
$$

WIZ051-052-058>065-066-070>072-251200-
SOUTHEAST WISCONSIN

CITY           SKY/WX    TMP DP  RH WIND       PRES   REMARKS
MILWAUKEE      CLOUDY    53  42  66 SE10      29.71S
KENOSHA*       PTCLDY    50  42  74 SE8       29.71S
RACINE*        CLOUDY    49  41  74 S12       29.73F
WAUKESHA       CLEAR     52  41  66 SE7       29.71F
WEST BEND      CLOUDY    50  37  62 SE3       29.70F
$$

INZ001>003-010>013-019-020-251200-
NORTHWEST INDIANA

CITY           SKY/WX    TMP DP  RH WIND       PRES   REMARKS
GARY*          PTCLDY    57  48  72 SE13      29.74S
MICHIGAN CITY* NOT AVBL
RENSSELAER*    NOT AVBL
VALPARAISO     CLEAR     48  45  89 E6        29.76F
$$

LMZ740>746-251200-
SOUTHERN LAKE MICHIGAN

STATION/POSITION TIME  SKY/WX   TEMP WIND        PRES    VSBY
                                AIR  DIR/SP/G
                 (UTC)          (F)  (DEG/KT/KT) (MB)    (MI)
HARRISON CRIB    1030            54  170/ 11/ 14   N/A
BURNHAM HARBOR   1100            55  140/  8       N/A
CALUMET HARBOR   1048            57  150/  7/ 12 1006.1S
BURNS HARBOR     1040            57  140/ 10/ 18 1007.5F
MICHIGAN CITY    1040            56  130/ 14/ 16   N/A
$$

ABBREVIATIONS USED IN REMARKS
   TC - TEMPERATURE IN CELSIUS
  WCI - WIND CHILL INDEX
   HX - HEAT INDEX
  VSB - VISIBILITY
$$




USA.gov is the U.S. government's official web portal to all federal, state and local government web resources and services.